STARLINK-32608 (62124 NORAD) Tracking and Keplerian Element Data

This shows tracking and keplerian element data for the satellite.

Feedback or suggestion? Click here.




ElementValue
Catalog62124
NameSTARLINK-32608
Epoch Orbit1173
Epoch Day34.91585717
Epoch Year2025
RAAN229.8112
Inclination43.0005
Eccentricity0.000168
Argument of Perigee266.5161
Mean Anonmoly93.5503
Mean Motion15.40679236
Decay Rate2.673E-05
L11 62124U 24222L 25034.91585717 .00002673 00000+0 71268-4 0 9999
L22 62124 43.0005 229.8112 0001680 266.5161 93.5503 15.40679236 11736



Live tracking and technical data element details for STARLINK-32608 (NORAD 62124). STARLINK-32608 can be tracked NOW for your location showing map with azimuth and elevation plus other details from your city location.







IsCatalogInMostPopularTable: catalog: 62124, numindb: 18
Update: records affected: 1



GetName: 62124 STARLINK-32608

Hit Count: updated at: Sun, 18 May 2025 22:35:00 GMT